Weather History for Columbus, OH

Change the Weather History Date:

Wednesday, August 7, 2013

  Actual Average Record
Temperature  
Mean Temperature 78 °F 75 °F  
Max Temperature 87 °F 84 °F 98 °F (1918)
Min Temperature 69 °F 65 °F 51 °F (1957)
Degree Days  
Heating Degree Days 0 0  
Month to date heating degree days 0 0  
Since 1 June heating degree days 6 19  
Since 1 July heating degree days 0 0  
Cooling Degree Days 13 10  
Month to date cooling degree days 50 70  
Year to date cooling degree days 769 678  
Since 1 June cooling degree days 608 596  
Growing Degree Days 28 (Base 50)    
Moisture  
Dew Point 68 °F    
Average Humidity 71    
Maximum Humidity 84    
Minimum Humidity 57    
Precipitation  
Precipitation T in 0.11 in 2.35 in (1935)
Month to date precipitation 0.27 0.81  
Year to date precipitation 24.07 25.18  
Snow  
Snow 0.00 in 0.00 in - ()
Month to date snowfall 0.0 0.0  
Since 1 June snowfall 0.0 0.0  
Since 1 July snowfall 0.0 0.0  
Snow Depth 0.00 in    
Sea Level Pressure  
Sea Level Pressure 29.93 in    
Wind  
Wind Speed 6 mph (South)    
Max Wind Speed 15 mph    
Max Gust Speed 22 mph    
Visibility 10 miles    
Events      
T = Trace of Precipitation, MM = Missing Value Source: NWS Daily Summary

Daily Weather History Graph

Daily Weather History Graph

Search for Another Location

Airport:

Trip Planner

Search our weather history database for the weather conditions in past years. The results will help you decide how hot, cold, wet, or windy it might be!

Date:

Astronomy

Aug. 07, 2013 Rise Set
Actual Time 6:35 AM EDT 8:38 PM EDT
Civil Twilight 6:06 AM EDT 9:07 PM EDT
Nautical Twilight 5:29 AM EDT 9:43 PM EDT
Astronomical Twilight 4:50 AM EDT 10:23 PM EDT
Moon 7:23 AM EDT (8/7) 8:44 PM EDT (8/7)
Length of Visible Light 15h 01m
Length of Day
14h 02m
New Moon, 1% of the Moon is Illuminated
Aug 7
New Moon
Aug 14
First Quarter
Aug 20
Full
Aug 28
Last Quarter
Sep 5
New

Hourly Weather History & Observations

Time (EDT) Temp. Heat Index Dew Point Humidity Pressure Visibility Wind Dir Wind Speed Gust Speed Precip Events Conditions
12:51 AM 73.0 °F - 62.1 °F 68% 29.94 in 10.0 mi SSE 4.6 mph - N/A   Partly Cloudy
1:51 AM 71.1 °F - 62.1 °F 73% 29.95 in 10.0 mi Calm Calm - N/A   Mostly Cloudy
2:51 AM 71.1 °F - 63.0 °F 75% 29.94 in 10.0 mi Calm Calm - N/A   Overcast
3:51 AM 70.0 °F - 63.0 °F 78% 29.94 in 10.0 mi Calm Calm - N/A   Overcast
4:51 AM 70.0 °F - 63.0 °F 78% 29.93 in 10.0 mi SSE 3.5 mph - N/A   Overcast
5:19 AM 69.8 °F - 64.4 °F 83% 29.94 in 10.0 mi SSE 3.5 mph - N/A   Overcast
5:42 AM 69.8 °F - 64.4 °F 83% 29.94 in 10.0 mi Calm Calm - N/A   Overcast
5:51 AM 69.1 °F - 64.0 °F 84% 29.92 in 10.0 mi Calm Calm - N/A   Overcast
6:51 AM 70.0 °F - 64.9 °F 84% 29.93 in 10.0 mi Calm Calm - N/A   Overcast
7:33 AM 71.6 °F - 64.4 °F 78% 29.94 in 10.0 mi Calm Calm - N/A   Overcast
7:51 AM 71.1 °F - 66.0 °F 84% 29.93 in 10.0 mi SE 3.5 mph - N/A   Overcast
8:26 AM 73.4 °F - 66.2 °F 78% 29.94 in 10.0 mi South 5.8 mph - N/A   Mostly Cloudy
8:51 AM 73.0 °F - 66.9 °F 81% 29.94 in 10.0 mi South 4.6 mph - N/A   Overcast
9:12 AM 73.4 °F - 66.2 °F 78% 29.96 in 10.0 mi South 5.8 mph - N/A   Overcast
9:41 AM 73.4 °F - 68.0 °F 83% 29.95 in 10.0 mi South 6.9 mph - N/A   Overcast
9:51 AM 75.0 °F - 68.0 °F 79% 29.94 in 10.0 mi South 6.9 mph - N/A   Overcast
10:16 AM 75.2 °F - 68.0 °F 78% 29.97 in 10.0 mi SSW 6.9 mph - N/A   Overcast
10:51 AM 77.0 °F - 69.1 °F 76% 29.95 in 10.0 mi SSW 5.8 mph - N/A   Overcast
11:51 AM 81.0 °F 85.2 °F 72.0 °F 74% 29.94 in 10.0 mi SSW 9.2 mph - N/A   Mostly Cloudy
12:51 PM 82.9 °F 88.0 °F 72.0 °F 69% 29.92 in 10.0 mi South 9.2 mph - N/A   Mostly Cloudy
1:51 PM 82.9 °F 87.5 °F 71.1 °F 67% 29.91 in 10.0 mi SW 10.4 mph - N/A   Mostly Cloudy
2:51 PM 86.0 °F 90.7 °F 70.0 °F 59% 29.90 in 8.0 mi SW 12.7 mph - N/A   Mostly Cloudy
3:51 PM 84.9 °F 88.8 °F 69.1 °F 59% 29.89 in 10.0 mi SSW 12.7 mph - N/A   Overcast
4:51 PM 84.9 °F 89.4 °F 70.0 °F 61% 29.87 in 9.0 mi South 8.1 mph - N/A   Mostly Cloudy
5:51 PM 84.0 °F 88.4 °F 70.0 °F 63% 29.88 in 10.0 mi SSW 13.8 mph - N/A   Mostly Cloudy
6:51 PM 82.9 °F 87.0 °F 70.0 °F 65% 29.88 in 9.0 mi SSW 10.4 mph - N/A   Mostly Cloudy
7:51 PM 82.9 °F 87.0 °F 70.0 °F 65% 29.89 in 10.0 mi SSW 8.1 mph - N/A   Mostly Cloudy
8:51 PM 81.0 °F 84.4 °F 70.0 °F 69% 29.89 in 10.0 mi South 5.8 mph - N/A   Mostly Cloudy
9:51 PM 78.1 °F - 71.1 °F 79% 29.90 in 10.0 mi SSE 6.9 mph - N/A   Mostly Cloudy
10:51 PM 77.0 °F - 71.1 °F 82% 29.93 in 10.0 mi SSE 3.5 mph - N/A   Overcast
11:49 PM 77.0 °F - 71.6 °F 83% 29.95 in 10.0 mi SSE 5.8 mph - N/A   Overcast
11:51 PM 77.0 °F - 72.0 °F 84% 29.93 in 10.0 mi SSE 5.8 mph - N/A   Overcast